Wind_Speed
57 57 59 60 62 64 66 66 68 71 73 75 77 77 77 77 79 78 80 81 82 82 84 84 83 83 83 82 81 83 82 81 80 79 77 77 76 76 78 77 77 78 79
50 51 52 53 54 58 58 63 64 65 66 69 72 73 72 73 76 75 75 77 79 78 79 80 82 83 83 83 83 83 81 82 81 79 80 80 79 77 76 75 76 76 76
45 45 46 49 51 51 51 53 57 59 62 63 61 61 61 61 62 60 60 63 66 67 66 65 68 70 75 79 81 81 81 82 82 79 77 74 74 74 73 70 69 68 69
46 45 44 44 47 49 49 48 48 50 50 50 51 55 56 54 52 48 46 48 50 52 54 53 54 57 63 67 71 73 72 73 74 72 72 67 62 60 56 56 49 47 50
45 44 43 44 47 48 47 47 46 47 46 46 47 47 45 44 42 32 24 23 27 30 32 33 34 38 40 45 50 54 59 63 63 63 62 57 51 46 39 37 38 35 40
46 44 43 42 43 45 46 45 44 46 45 43 40 44 46 39 34 27 20 18 22 28 35 36 34 37 37 37 39 45 44 44 46 44 38 41 39 36 32 28 34 36 44
44 43 41 43 44 45 44 43 43 43 44 38 37 44 45 35 40 35 28 24 22 31 42 44 41 37 40 33 35 36 32 34 37 37 26 27 34 30 29 33 36 42 43
43 41 43 43 45 45 44 42 42 40 41 42 41 47 47 43 45 37 30 28 28 28 34 29 24 25 21 18 22 28 25 30 27 25 25 34 29 28 36 36 35 42 42
39 41 39 39 44 45 44 42 40 38 41 42 43 45 49 47 49 36 26 30 36 31 34 26 22 21 17 15 15 18 23 26 20 19 30 30 31 38 39 43 47 41 46
39 40 40 41 43 40 39 40 41 42 37 36 39 45 48 48 53 44 37 19 37 42 35 26 22 21 16 16 21 15 18 24 31 37 39 40 32 33 37 42 42 41 30
39 39 41 41 40 39 36 38 42 42 38 37 40 43 46 48 49 44 42 46 42 44 35 35 25 20 16 22 25 21 22 26 27 32 29 31 33 35 35 39 35 23 20
37 39 39 40 41 42 38 39 40 38 38 34 33 38 44 47 54 49 44 41 49 42 33 29 33 26 16 20 23 27 24 29 38 40 35 32 38 32 36 28 25 22 19
41 39 36 37 41 43 41 39 39 37 35 29 29 34 43 55 59 50 47 44 55 42 33 38 36 31 22 30 30 29 32 34 40 38 35 35 35 30 22 23 19 18 16
41 43 38 38 39 43 44 42 42 36 31 26 24 29 41 56 61 60 54 56 48 41 42 29 29 18 22 30 34 35 35 42 43 39 37 41 40 23 22 20 23 23 18
43 44 39 39 38 41 42 41 43 38 29 25 21 22 37 54 60 64 52 41 37 39 39 28 24 26 20 24 30 20 31 33 41 41 42 40 31 24 20 16 17 22 20
39 41 40 41 43 41 40 41 41 37 29 23 21 28 32 54 55 55 51 50 52 45 35 28 26 25 26 32 34 31 28 27 30 29 32 34 31 29 27 26 23 26 28
36 39 39 40 40 40 41 42 41 36 29 24 28 35 36 49 60 58 52 48 47 46 40 33 32 28 25 29 27 29 31 30 28 26 34 33 33 28 30 32 32 35 37
36 36 40 40 40 39 39 41 42 33 29 29 29 43 41 42 53 59 61 51 46 42 36 35 36 29 27 30 30 25 26 24 24 24 24 31 36 36 39 35 34 39 40
36 34 39 42 41 38 34 37 40 31 28 32 32 42 48 44 47 63 55 50 48 44 41 36 38 33 28 29 30 32 27 26 25 24 25 26 32 37 42 42 42 46 45
36 35 38 39 37 32 33 32 36 33 26 36 34 40 49 51 51 45 54 60 48 47 45 41 42 40 40 33 35 35 36 33 31 30 32 35 37 32 39 45 44 43 46
32 32 37 35 30 30 31 32 25 32 26 38 38 44 46 56 52 52 54 53 55 49 47 43 46 37 41 38 38 37 41 44 44 33 37 41 42 39 42 42 44 47 50
29 32 37 32 29 28 30 30 29 25 27 37 41 44 46 51 58 58 56 54 50 53 54 46 45 46 39 44 47 49 47 48 45 45 40 41 43 44 47 46 49 53 55
26 29 34 29 29 29 30 30 28 26 27 33 42 45 49 48 52 56 59 58 57 55 56 54 53 46 47 42 45 46 48 48 48 46 47 47 47 50 49 52 53 55 55
26 28 32 30 28 28 29 29 27 26 24 32 43 45 49 45 45 51 45 58 54 58 57 58 56 58 56 52 49 44 44 44 51 50 50 52 55 53 53 53 56 58 59
24 28 31 29 28 27 28 29 28 23 22 28 39 44 47 46 47 44 50 52 52 53 61 62 62 58 57 59 54 52 55 47 48 52 54 58 58 57 55 55 56 59 63
26 28 28 28 26 26 26 29 31 25 15 21 34 42 42 42 43 46 49 49 54 56 60 60 61 64 60 60 59 61 57 55 56 51 53 53 55 58 58 61 63 63 66
Wind_Direction
275 275 272 272 271 269 267 263 259 259 259 258 256 256 255 254 252 252 254 253 254 253 253 254 255 255 255 256 257 259 259 259 260 262 264 265 267 268 270 271 271 272 274
278 278 276 274 273 271 268 268 265 263 259 259 259 258 259 258 256 254 255 259 260 260 258 258 259 259 260 260 260 259 259 261 262 262 263 263 265 265 267 270 273 272 274
281 280 281 281 278 275 272 271 269 267 267 264 262 262 263 263 261 260 257 257 259 260 261 259 258 258 259 259 258 260 260 260 260 263 266 266 267 268 269 272 273 273 273
281 283 283 282 280 278 277 274 274 273 268 265 266 264 262 260 260 258 255 253 255 257 258 260 262 261 259 259 259 257 259 259 260 263 265 268 270 270 271 271 271 268 272
286 287 288 285 283 281 278 276 272 270 271 269 265 261 258 257 253 240 228 237 244 247 248 252 255 258 260 260 261 262 261 261 260 261 262 264 268 269 269 270 269 274 279
294 294 295 293 293 289 286 281 276 273 270 267 267 262 253 244 232 197 202 214 254 262 254 253 256 260 262 263 264 261 259 258 259 255 253 257 263 253 265 268 273 274 277
293 293 296 296 297 293 289 285 278 276 273 268 260 257 251 230 200 196 196 222 245 260 253 255 263 263 262 259 258 256 254 254 254 256 256 250 249 261 269 273 280 275 275
292 291 294 295 295 299 288 285 281 277 274 266 257 249 243 221 208 217 211 223 232 247 261 261 257 254 246 247 259 254 245 249 259 250 239 237 243 264 264 267 278 277 275
294 297 299 300 297 295 290 288 285 281 278 269 258 246 239 222 216 204 203 221 231 244 254 253 243 252 260 269 252 248 248 242 231 259 253 244 249 254 260 264 277 278 276
293 297 300 304 300 293 290 289 288 287 284 272 259 247 237 224 215 207 198 211 223 237 247 237 260 254 264 257 257 266 255 237 229 225 234 248 251 263 265 274 275 277 279
288 296 302 306 300 294 294 289 289 290 287 279 260 244 231 221 206 202 198 195 231 238 238 242 245 263 262 255 264 267 259 241 242 246 258 247 257 259 266 276 270 272 254
290 295 302 304 298 295 295 295 295 292 291 276 257 240 224 209 196 196 212 215 227 233 232 238 247 253 251 254 266 264 263 235 227 239 238 242 248 262 273 261 267 263 241
295 300 305 304 293 293 295 298 296 291 289 270 258 236 214 200 196 201 199 216 221 223 234 248 253 256 253 254 260 265 256 251 243 245 237 238 248 269 256 253 252 231 231
293 299 304 302 293 292 293 296 298 292 287 264 259 236 212 196 199 198 196 203 216 226 236 246 255 236 260 248 252 262 246 237 246 250 247 249 253 248 243 240 237 245 249
291 295 302 299 297 296 295 296 296 293 285 257 251 229 190 189 199 202 203 201 222 226 229 242 234 253 238 248 252 256 248 241 244 249 249 248 232 225 228 228 256 250 264
286 293 299 295 293 295 293 294 293 290 284 248 229 195 193 193 200 201 205 208 217 228 234 230 252 239 234 256 257 261 244 241 252 251 234 241 222 221 237 252 264 271 275
281 290 294 290 294 293 292 293 294 289 277 238 221 198 202 202 204 209 212 217 220 227 233 232 241 239 244 241 246 241 244 239 238 238 238 230 228 228 242 252 267 277 277
281 292 290 289 293 296 291 297 296 283 271 233 219 204 211 209 209 210 215 218 230 229 227 237 237 235 239 229 233 226 228 230 239 245 246 226 233 238 248 266 271 278 288
283 293 290 292 293 295 290 302 297 287 269 227 219 212 208 211 211 210 218 220 227 227 231 231 226 230 225 229 230 224 222 226 230 233 240 248 247 252 256 263 276 276 283
285 292 293 295 292 291 291 295 297 288 264 225 224 219 214 217 209 216 218 220 225 228 228 225 226 225 242 228 234 233 233 230 237 244 253 255 266 272 270 273 277 278 288
285 287 292 300 293 293 299 304 301 282 269 222 222 222 214 215 217 217 220 221 221 220 223 235 229 225 225 223 227 239 240 240 242 252 255 268 268 274 276 274 279 280 287
279 287 291 293 293 295 304 313 305 281 262 224 220 223 225 214 217 222 223 223 220 225 226 228 232 229 232 226 227 237 249 243 255 263 259 262 263 267 269 276 278 280 283
282 288 293 289 287 293 304 317 312 291 258 235 224 220 226 221 214 217 221 225 225 223 226 222 231 235 236 241 242 246 253 256 253 254 256 258 264 270 276 275 279 283 284
275 291 289 284 285 294 308 324 322 305 262 241 225 224 218 221 226 216 218 219 223 224 225 222 236 240 244 249 246 248 249 258 258 261 264 265 272 276 277 280 282 283 285
274 284 281 282 287 294 311 327 332 314 271 249 227 225 220 225 227 222 224 221 223 228 228 228 233 238 242 246 247 245 252 257 262 258 265 269 272 272 275 277 278 281 283
270 274 276 280 288 293 313 326 337 323 293 258 232 224 221 225 227 228 223 220 224 228 234 233 236 240 242 244 247 249 257 255 259 263 265 266 271 273 274 277 281 282 286
Height
10781 10779 10777 10774 10773 10772 10771 10772 10774 10773 10774 10776 10778 10780 10785 10790 10794 10798 10798 10796 10797 10802 10804 10808 10811 10813 10816 10819 10821 10820 10821 10824 10827 10827 10829 10829 10829 10830 10830 10830 10830 10829 10829
10771 10768 10766 10765 10762 10760 10760 10756 10759 10760 10761 10762 10764 10766 10768 10773 10777 10783 10788 10789 10788 10788 10794 10797 10799 10800 10803 10806 10806 10806 10810 10812 10814 10816 10815 10817 10818 10820 10821 10821 10820 10820 10820
10762 10758 10756 10752 10750 10750 10750 10749 10747 10747 10749 10751 10751 10753 10755 10758 10763 10768 10771 10773 10773 10774 10777 10782 10783 10787 10789 10791 10792 10794 10797 10799 10800 10802 10803 10806 10807 10809 10811 10811 10810 10811 10809
10752 10750 10749 10745 10741 10739 10738 10738 10738 10737 10737 10741 10741 10739 10741 10744 10748 10753 10756 10759 10761 10763 10765 10767 10770 10773 10776 10778 10779 10781 10784 10785 10788 10792 10794 10797 10797 10797 10799 10800 10800 10800 10800
10741 10740 10739 10736 10731 10728 10727 10728 10728 10726 10728 10728 10728 10731 10731 10733 10737 10742 10745 10749 10753 10755 10756 10758 10761 10763 10765 10767 10768 10769 10773 10776 10779 10783 10784 10787 10789 10789 10791 10792 10793 10792 10792
10730 10729 10727 10724 10721 10717 10715 10716 10716 10715 10717 10719 10720 10716 10716 10724 10730 10732 10738 10743 10747 10750 10750 10752 10754 10756 10758 10760 10760 10759 10765 10766 10770 10771 10777 10778 10781 10782 10785 10783 10784 10786 10786
10724 10722 10720 10715 10712 10708 10706 10704 10704 10705 10703 10707 10711 10704 10704 10714 10719 10720 10725 10730 10738 10742 10742 10744 10749 10750 10753 10754 10752 10752 10758 10760 10762 10766 10768 10774 10774 10776 10777 10777 10779 10779 10778
10717 10714 10711 10708 10703 10699 10696 10694 10694 10695 10693 10695 10698 10695 10696 10702 10708 10711 10715 10724 10731 10732 10733 10739 10741 10743 10746 10747 10746 10746 10752 10754 10757 10759 10764 10765 10767 10769 10772 10774 10773 10772 10771
10707 10703 10702 10700 10695 10691 10685 10683 10682 10684 10684 10682 10684 10683 10685 10692 10701 10704 10709 10717 10722 10726 10729 10735 10737 10739 10742 10743 10741 10744 10747 10749 10753 10756 10757 10759 10761 10764 10766 10767 10766 10765 10764
10698 10695 10694 10690 10685 10681 10679 10675 10673 10672 10672 10672 10670 10669 10673 10684 10692 10698 10702 10709 10715 10717 10726 10730 10733 10735 10738 10737 10737 10740 10743 10744 10747 10749 10752 10754 10756 10759 10760 10760 10759 10758 10757
10691 10687 10685 10681 10676 10672 10672 10668 10666 10663 10661 10660 10659 10659 10663 10673 10685 10693 10697 10702 10705 10710 10721 10724 10729 10731 10734 10732 10733 10736 10738 10739 10742 10745 10747 10750 10752 10754 10753 10753 10752 10753 10753
10681 10681 10679 10674 10667 10663 10663 10660 10657 10655 10652 10650 10649 10650 10655 10664 10677 10686 10692 10697 10701 10709 10716 10717 10723 10729 10730 10727 10728 10733 10733 10733 10736 10738 10741 10744 10746 10748 10748 10748 10748 10749 10750
10670 10671 10672 10668 10661 10656 10653 10652 10649 10647 10645 10643 10642 10644 10648 10658 10671 10679 10687 10690 10698 10706 10709 10713 10717 10723 10725 10722 10725 10729 10728 10728 10729 10732 10736 10740 10742 10743 10743 10744 10745 10746 10746
10663 10661 10664 10661 10656 10651 10646 10644 10640 10640 10640 10638 10638 10640 10646 10655 10664 10671 10678 10686 10694 10701 10706 10707 10712 10715 10720 10715 10719 10723 10723 10723 10724 10727 10731 10734 10737 10738 10740 10740 10741 10741 10743
10654 10653 10654 10652 10649 10645 10640 10638 10633 10632 10634 10634 10634 10638 10644 10652 10658 10667 10674 10682 10690 10694 10698 10703 10706 10710 10714 10711 10716 10719 10718 10719 10719 10722 10726 10727 10731 10733 10734 10736 10737 10738 10739
10649 10646 10646 10643 10641 10639 10635 10632 10628 10626 10628 10629 10631 10635 10640 10649 10655 10662 10669 10676 10682 10687 10693 10698 10700 10704 10708 10706 10711 10714 10713 10714 10715 10718 10719 10722 10724 10726 10729 10731 10732 10732 10732
10644 10642 10639 10635 10633 10631 10628 10624 10622 10619 10620 10624 10627 10632 10635 10641 10650 10658 10663 10671 10678 10683 10688 10693 10695 10698 10702 10699 10704 10708 10708 10710 10711 10712 10714 10717 10719 10721 10723 10724 10725 10725 10725
10636 10634 10631 10628 10627 10625 10621 10616 10613 10612 10613 10617 10621 10627 10631 10635 10642 10650 10658 10665 10669 10675 10682 10688 10688 10693 10697 10695 10697 10701 10703 10705 10707 10708 10709 10712 10714 10716 10717 10718 10718 10718 10717
10626 10626 10622 10619 10618 10617 10616 10610 10605 10605 10606 10610 10614 10620 10625 10630 10636 10644 10650 10658 10664 10671 10677 10682 10683 10688 10692 10691 10692 10694 10697 10699 10702 10703 10705 10707 10708 10710 10710 10712 10711 10710 10709
10618 10617 10614 10611 10610 10608 10607 10605 10598 10597 10598 10603 10607 10612 10619 10625 10630 10636 10642 10650 10656 10663 10672 10677 10678 10680 10685 10686 10687 10688 10690 10694 10695 10697 10700 10701 10702 10703 10704 10703 10702 10701 10700
10611 10610 10607 10604 10603 10601 10599 10596 10592 10589 10591 10594 10598 10603 10610 10616 10624 10630 10634 10642 10650 10658 10665 10670 10672 10674 10678 10678 10680 10683 10685 10687 10687 10689 10690 10693 10693 10694 10694 10694 10693 10692 10691
10605 10604 10600 10597 10596 10594 10592 10588 10584 10581 10583 10586 10590 10597 10602 10610 10616 10622 10629 10637 10643 10650 10658 10663 10666 10669 10671 10672 10672 10673 10677 10680 10681 10683 10682 10683 10684 10685 10685 10684 10684 10683 10680
10597 10597 10593 10590 10590 10588 10585 10581 10575 10573 10572 10575 10581 10586 10592 10600 10607 10614 10622 10630 10636 10643 10648 10653 10656 10660 10664 10666 10668 10669 10670 10672 10672 10674 10674 10675 10676 10676 10676 10675 10673 10671 10669
10591 10590 10587 10585 10583 10582 10579 10574 10568 10563 10563 10565 10570 10576 10585 10593 10599 10606 10613 10622 10626 10634 10639 10643 10648 10653 10656 10657 10660 10661 10663 10664 10664 10664 10665 10666 10665 10665 10664 10664 10662 10660 10658
10584 10583 10581 10580 10578 10575 10572 10567 10562 10558 10555 10555 10560 10568 10576 10585 10593 10598 10605 10612 10618 10624 10629 10635 10639 10643 10647 10649 10650 10651 10654 10655 10654 10654 10655 10655 10655 10655 10654 10654 10653 10651 10647
10577 10577 10575 10574 10572 10569 10566 10561 10556 10552 10550 10549 10552 10559 10569 10577 10584 10590 10597 10603 10609 10615 10620 10624 10629 10634 10637 10639 10640 10642 10643 10644 10644 10645 10645 10644 10644 10643 10642 10641 10638 10636 10632